Change the Weather History Date:

Wednesday, October 2, 2013

  Actual Average Record
Temperature  
Mean Temperature 66 °F -  
Max Temperature 77 °F 62 °F 82 °F (2002)
Min Temperature 53 °F 44 °F 33 °F (1997)
Cooling Degree Days 1    
Growing Degree Days 16 (Base 50)    
Moisture  
Dew Point 54 °F    
Average Humidity 70    
Maximum Humidity 88    
Minimum Humidity 50    
Precipitation  
Precipitation 0.00 in - - ()
Sea Level Pressure  
Sea Level Pressure 29.93 in    
Wind  
Wind Speed 6 mph (West)    
Max Wind Speed 14 mph    
Max Gust Speed 23 mph    
Visibility 10 miles    
Events      
Averages and records for this station are not official NWS values.
T = Trace of Precipitation, MM = Missing Value Source: NWS Daily Summary

Daily Weather History Graph

Daily Weather History Graph

Search for Another Location

Airport or City:

Trip Planner

Search our weather history database for the weather conditions in past years. The results will help you decide how hot, cold, wet, or windy it might be!

Date:

Astronomy

Oct. 02, 2013 Rise Set
Actual Time 6:44 AM EDT 6:25 PM EDT
Civil Twilight 6:16 AM EDT 6:53 PM EDT
Nautical Twilight 5:44 AM EDT 7:25 PM EDT
Astronomical Twilight 5:11 AM EDT 7:58 PM EDT
Moon 4:12 AM EDT (10/2) 5:01 PM EDT (10/2)
Length of Visible Light 12h 36m
Length of Day
11h 41m
Waning Crescent, 6% of the Moon is Illuminated
Oct 2
Waning Crescent
Oct 4
New
Oct 11
First Quarter
Oct 18
Full
Oct 26
Last Quarter

Hourly Weather History & Observations

Time (EDT) Temp. Dew Point Humidity Pressure Visibility Wind Dir Wind Speed Gust Speed Precip Events Conditions
12:15 AM 55.4 °F 51.8 °F 88% 29.93 in 10.0 mi WSW 3.5 mph - N/A   Clear
12:35 AM 57.2 °F 51.8 °F 82% 29.93 in 10.0 mi WSW 4.6 mph - N/A   Clear
12:55 AM 57.2 °F 51.8 °F 82% 29.93 in 10.0 mi West 4.6 mph - N/A   Clear
1:15 AM 57.2 °F 51.8 °F 82% 29.93 in 10.0 mi West 3.5 mph - N/A   Clear
1:35 AM 57.2 °F 51.8 °F 82% 29.93 in 10.0 mi WSW 3.5 mph - N/A   Clear
1:55 AM 57.2 °F 51.8 °F 82% 29.93 in 10.0 mi WSW 4.6 mph - N/A   Clear
2:15 AM 55.4 °F 50.0 °F 82% 29.93 in 10.0 mi West 4.6 mph - N/A   Clear
2:35 AM 57.2 °F 51.8 °F 82% 29.93 in 10.0 mi West 4.6 mph - N/A   Clear
2:55 AM 57.2 °F 50.0 °F 77% 29.92 in 10.0 mi WSW 3.5 mph - N/A   Clear
3:15 AM 55.4 °F 51.8 °F 88% 29.92 in 10.0 mi WSW 3.5 mph - N/A   Clear
3:35 AM 55.4 °F 50.0 °F 82% 29.92 in 10.0 mi WSW 3.5 mph - N/A   Clear
3:55 AM 55.4 °F 48.2 °F 77% 29.92 in 10.0 mi WSW 3.5 mph - N/A   Clear
4:15 AM 55.4 °F 50.0 °F 82% 29.92 in 10.0 mi West 6.9 mph - N/A   Clear
4:35 AM 57.2 °F 50.0 °F 77% 29.92 in 10.0 mi West 5.8 mph - N/A   Clear
4:55 AM 57.2 °F 50.0 °F 77% 29.92 in 10.0 mi WSW 4.6 mph - N/A   Clear
5:15 AM 55.4 °F 50.0 °F 82% 29.92 in 10.0 mi WSW 4.6 mph - N/A   Clear
5:35 AM 55.4 °F 50.0 °F 82% 29.92 in 10.0 mi WSW 4.6 mph - N/A   Clear
5:55 AM 55.4 °F 50.0 °F 82% 29.92 in 10.0 mi West 5.8 mph - N/A   Clear
6:15 AM 57.2 °F 50.0 °F 77% 29.92 in 10.0 mi West 6.9 mph - N/A   Clear
6:35 AM 57.2 °F 50.0 °F 77% 29.93 in 10.0 mi WSW 5.8 mph - N/A   Clear
6:55 AM 57.2 °F 50.0 °F 77% 29.93 in 10.0 mi WSW 5.8 mph - N/A   Clear
7:15 AM 57.2 °F 50.0 °F 77% 29.94 in 10.0 mi WSW 3.5 mph - N/A   Clear
7:35 AM 57.2 °F 51.8 °F 82% 29.94 in 10.0 mi West 5.8 mph - N/A   Clear
7:55 AM 60.8 °F 53.6 °F 77% 29.94 in 10.0 mi WSW 4.6 mph - N/A   Clear
8:15 AM 62.6 °F 53.6 °F 72% 29.94 in 10.0 mi WSW 3.5 mph - N/A   Clear
8:35 AM 62.6 °F 53.6 °F 72% 29.94 in 10.0 mi SSW 3.5 mph - N/A   Clear
8:55 AM 64.4 °F 55.4 °F 73% 29.95 in 10.0 mi Calm Calm - N/A   Clear
9:15 AM 66.2 °F 55.4 °F 68% 29.94 in 10.0 mi WSW 4.6 mph - N/A   Clear
9:35 AM 68.0 °F 55.4 °F 64% 29.94 in 10.0 mi WSW 3.5 mph - N/A   Clear
9:55 AM 69.8 °F 55.4 °F 60% 29.94 in 10.0 mi West 5.8 mph - N/A   Clear
10:15 AM 69.8 °F 57.2 °F 64% 29.94 in 10.0 mi West 9.2 mph - N/A   Clear
10:35 AM 71.6 °F 57.2 °F 60% 29.93 in 10.0 mi West 10.4 mph 17.3 mph N/A   Clear
10:55 AM 71.6 °F 57.2 °F 60% 29.93 in 10.0 mi West 11.5 mph 17.3 mph N/A   Clear
11:15 AM 73.4 °F 57.2 °F 57% 29.92 in 10.0 mi WSW 6.9 mph - N/A   Clear
11:35 AM 73.4 °F 57.2 °F 57% 29.91 in 10.0 mi WSW 9.2 mph 17.3 mph N/A   Clear
11:55 AM 73.4 °F 57.2 °F 57% 29.91 in 10.0 mi WSW 8.1 mph 17.3 mph N/A   Clear
12:15 PM 75.2 °F 57.2 °F 53% 29.91 in 10.0 mi West 11.5 mph 21.9 mph N/A   Clear
12:35 PM 75.2 °F 57.2 °F 53% 29.90 in 10.0 mi West 12.7 mph 19.6 mph N/A   Clear
12:55 PM 75.2 °F 57.2 °F 53% 29.91 in 10.0 mi WNW 11.5 mph 23.0 mph N/A   Clear
1:15 PM 75.2 °F 57.2 °F 53% 29.90 in 10.0 mi West 10.4 mph 19.6 mph N/A   Clear
1:35 PM 75.2 °F 57.2 °F 53% 29.90 in 10.0 mi West 10.4 mph 20.7 mph N/A   Clear
1:55 PM 75.2 °F 57.2 °F 53% 29.90 in 10.0 mi West 9.2 mph 21.9 mph N/A   Clear
2:15 PM 75.2 °F 57.2 °F 53% 29.90 in 10.0 mi WSW 10.4 mph 17.3 mph N/A   Clear
2:35 PM 77.0 °F 57.2 °F 50% 29.89 in 10.0 mi WNW 12.7 mph - N/A   Partly Cloudy
2:55 PM 77.0 °F 59.0 °F 54% 29.90 in 10.0 mi WNW 13.8 mph 18.4 mph N/A   Scattered Clouds
3:15 PM 77.0 °F 57.2 °F 50% 29.89 in 10.0 mi WNW 11.5 mph 19.6 mph N/A   Mostly Cloudy
3:35 PM 77.0 °F 57.2 °F 50% 29.89 in 10.0 mi West 13.8 mph 19.6 mph N/A   Partly Cloudy
3:55 PM 75.2 °F 57.2 °F 53% 29.89 in 10.0 mi West 9.2 mph 18.4 mph N/A   Clear
4:15 PM 75.2 °F 57.2 °F 53% 29.89 in 10.0 mi West 10.4 mph 18.4 mph N/A   Clear
4:35 PM 75.2 °F 57.2 °F 53% 29.89 in 10.0 mi West 12.7 mph 19.6 mph N/A   Clear
4:55 PM 73.4 °F 57.2 °F 57% 29.90 in 10.0 mi WNW 12.7 mph 17.3 mph N/A   Clear
5:15 PM 73.4 °F 57.2 °F 57% 29.90 in 10.0 mi West 12.7 mph 21.9 mph N/A   Clear
5:35 PM 71.6 °F 55.4 °F 57% 29.90 in 10.0 mi West 11.5 mph 18.4 mph N/A   Clear
5:55 PM 71.6 °F 55.4 °F 57% 29.91 in 10.0 mi West 12.7 mph - N/A   Clear
6:15 PM 71.6 °F 55.4 °F 57% 29.92 in 10.0 mi West 6.9 mph - N/A   Clear
6:35 PM 69.8 °F 55.4 °F 60% 29.92 in 10.0 mi West 9.2 mph - N/A   Clear
6:55 PM 68.0 °F 53.6 °F 60% 29.92 in 10.0 mi West 6.9 mph - N/A   Clear
7:15 PM 66.2 °F 53.6 °F 64% 29.93 in 10.0 mi NW 4.6 mph - N/A   Clear
7:35 PM 64.4 °F 53.6 °F 68% 29.93 in 10.0 mi West 5.8 mph - N/A   Clear
7:55 PM 64.4 °F 53.6 °F 68% 29.94 in 10.0 mi West 3.5 mph - N/A   Clear
8:15 PM 60.8 °F 53.6 °F 77% 29.95 in 10.0 mi WSW 4.6 mph - N/A   Clear
8:35 PM 59.0 °F 53.6 °F 82% 29.95 in 10.0 mi WSW 4.6 mph - N/A   Clear
8:55 PM 60.8 °F 53.6 °F 77% 29.96 in 10.0 mi WSW 4.6 mph - N/A   Clear
9:15 PM 60.8 °F 53.6 °F 77% 29.96 in 10.0 mi SW 3.5 mph - N/A   Clear
9:35 PM 60.8 °F 53.6 °F 77% 29.96 in 10.0 mi WSW 4.6 mph - N/A   Clear
9:55 PM 57.2 °F 51.8 °F 82% 29.97 in 10.0 mi Calm Calm - N/A   Clear
10:15 PM 59.0 °F 53.6 °F 82% 29.97 in 10.0 mi West 4.6 mph - N/A   Clear
10:35 PM 55.4 °F 50.0 °F 82% 29.98 in 10.0 mi West 4.6 mph - N/A   Clear
10:55 PM 57.2 °F 51.8 °F 82% 29.98 in 10.0 mi West 4.6 mph - N/A   Clear
11:15 PM 55.4 °F 51.8 °F 88% 29.99 in 10.0 mi West 4.6 mph - N/A   Clear
11:35 PM 55.4 °F 50.0 °F 82% 29.99 in 10.0 mi West 3.5 mph - N/A   Clear
11:55 PM 53.6 °F 48.2 °F 82% 30.00 in 10.0 mi WSW 3.5 mph - N/A   Clear